Regional Weather Roundup
Issued by NWS

Home | Current Version | Previous Version | Text Only | Print | Product List | Glossary On
Versions: 1 2 3 4 5 6 7 8 9 10 11 12 13 14 15 16 17 18 19 20 21 22 23 24 25 26 27 28 29 30 31 32 33 34 35 36 37 38 39 40 41 42 43 44 45 46 47 48 49 50
000
ASUS44 KOUN 301410
RWROK

WEATHER ROUNDUP FOR OKLAHOMA
NATIONAL WEATHER SERVICE NORMAN OK
900 AM CDT SAT AUG 30 2014

NOTE: "FAIR" INDICATES FEW OR NO CLOUDS BELOW 12,000 FEET WITH NO
      SIGNIFICANT WEATHER AND/OR OBSTRUCTIONS TO VISIBILITY.

OKZ001>007-009>012-014-015-017-301500-
NORTHWEST OKLAHOMA AND THE PANHANDLE

CITY           SKY/WX    TMP DP  RH WIND       PRES   REMARKS
GAGE           SUNNY     66  62  87 W5        30.02R
ENID/WOODRING  MOSUNNY   73  64  73 CALM      29.94S
$$

OKZ016-021>023-033>039-044-045-301500-
SOUTHWEST OKLAHOMA

CITY           SKY/WX    TMP DP  RH WIND       PRES   REMARKS
LAWTON/REGL    SUNNY     75  70  84 CALM      29.97S
LAWTON/FT SILL MOSUNNY   78  69  75 NW3       29.96S
FREDERICK      SUNNY     74  72  93 CALM      29.96R FOG
CLINTON        SUNNY     77  70  79 SW7       30.01S
HOBART         SUNNY     74  71  91 SW3       30.00R
ALTUS AFB      SUNNY     73  73 100 CALM      29.99S
$$

OKZ018>020-024>031-301500-
CENTRAL OKLAHOMA

CITY           SKY/WX    TMP DP  RH WIND       PRES   REMARKS
OKLAHOMA CITY  MOSUNNY   76  68  76 SW7       29.96F
OKC/WILEY POST SUNNY     77  69  76 SW7       29.96F
OKC/TINKER AFB SUNNY     77  68  74 SW8       29.96F
STILLWATER     SUNNY     78  68  71 W6        29.95R
GUTHRIE        SUNNY     76  68  76 W9        29.96R
$$

OKZ008-013-054>072-301500-
NORTHEAST OKLAHOMA

CITY           SKY/WX    TMP DP  RH WIND       PRES   REMARKS
TULSA          MOSUNNY   79  70  74 S3        29.93R
TULSA/JONES    SUNNY     77  70  79 VRB3      29.94S
PONCA CITY     SUNNY     72  69  90 SW3       29.94S
BARTLESVILLE   SUNNY     79  69  71 SW8       29.95S
MUSKOGEE       SUNNY     77  71  82 S7        29.97S
$$

OKZ032-040>043-046>053-073>077-301500-
SOUTH CENTRAL/SOUTHEAST OKLAHOMA

CITY           SKY/WX    TMP DP  RH WIND       PRES   REMARKS
ARDMORE/DWNTWN SUNNY     77  70  78 CALM      29.97S
MCALESTER      PTSUNNY   76  71  85 S6        29.98R
$$




USA.gov is the U.S. government's official web portal to all federal, state and local government web resources and services.